Page, AZ

8:29 PM MDT on July 23, 2016 (GMT -0600)
Page Municipal

Weather History for KPGA - March, 2013

Change the Weather History Date:

Friday, March 8, 2013

  Actual Average Record
Temperature  
Mean Temperature 44 °F -  
Max Temperature 55 °F 57 °F 76 °F (1972)
Min Temperature 33 °F 36 °F 20 °F (1969)
Degree Days  
Heating Degree Days 21    
Moisture  
Dew Point 33 °F    
Average Humidity 73    
Maximum Humidity 93    
Minimum Humidity 27    
Precipitation  
Precipitation 0.55 in - - ()
Sea Level Pressure  
Sea Level Pressure 29.71 in    
Wind  
Wind Speed 6 mph (WSW)    
Max Wind Speed 21 mph    
Max Gust Speed 31 mph    
Visibility 6 miles    
Events Rain , Snow    
Averages and records for this station are not official NWS values.
T = Trace of Precipitation, MM = Missing Value Source: NWS Daily Summary

Daily Weather History Graph

Daily Weather History Graph

Search for Another Location

Airport or City:

Trip Planner

Search our weather history database for the weather conditions in past years. The results will help you decide how hot, cold, wet, or windy it might be!

Date:

Astronomy

Mar. 08, 2013 Rise Set
Actual Time 6:46 AM MST 6:27 PM MST
Civil Twilight 6:20 AM MST 6:52 PM MST
Nautical Twilight 5:50 AM MST 7:22 PM MST
Astronomical Twilight 5:20 AM MST 7:53 PM MST
Moon 4:29 AM MST (3/8) 3:29 PM MST (3/8)
Length of Visible Light 12h 32m
Length of Day
11h 40m
Waning Crescent, 11% of the Moon is Illuminated
Mar 8
Waning Crescent
Mar 11
New
Mar 19
First Quarter
Mar 27
Full
Apr 2
Last Quarter

Hourly Weather History & Observations

Time (MST) Temp. Windchill Dew Point Humidity Pressure Visibility Wind Dir Wind Speed Gust Speed Precip Events Conditions
12:53 AM 53.1 °F - 19.9 °F 27% 29.75 in 10.0 mi Calm Calm - N/A   Clear
1:53 AM 53.1 °F - 21.0 °F 29% 29.73 in 10.0 mi SSW 3.5 mph - N/A   Partly Cloudy
2:53 AM 51.1 °F - 21.9 °F 32% 29.71 in 10.0 mi SSE 6.9 mph - N/A   Scattered Clouds
3:53 AM 52.0 °F - 21.0 °F 30% 29.70 in 10.0 mi Calm Calm - N/A   Overcast
4:53 AM 50.0 °F - 28.9 °F 44% 29.73 in 10.0 mi NW 10.4 mph 20.7 mph N/A   Overcast
5:53 AM 48.0 °F - 35.1 °F 61% 29.75 in 10.0 mi NNW 4.6 mph - 0.00 in Rain Light Rain
6:53 AM 46.9 °F - 36.0 °F 66% 29.74 in 10.0 mi North 5.8 mph - 0.00 in Rain Light Rain
7:53 AM 46.0 °F 43.9 °F 37.9 °F 73% 29.76 in 10.0 mi SE 4.6 mph - 0.01 in Rain Light Rain
8:53 AM 46.9 °F - 36.0 °F 66% 29.74 in 10.0 mi SSE 8.1 mph - 0.00 in   Overcast
9:53 AM 48.0 °F - 36.0 °F 63% 29.73 in 10.0 mi SE 5.8 mph - N/A   Overcast
10:53 AM 51.1 °F - 37.0 °F 59% 29.70 in 10.0 mi SE 11.5 mph - N/A   Overcast
11:53 AM 53.1 °F - 36.0 °F 52% 29.67 in 10.0 mi SSE 13.8 mph 21.9 mph N/A   Mostly Cloudy
12:53 PM 53.1 °F - 35.1 °F 50% 29.63 in 10.0 mi South 20.7 mph 28.8 mph N/A   Scattered Clouds
1:53 PM 54.0 °F - 35.1 °F 49% 29.58 in 10.0 mi SSE 20.7 mph - N/A   Clear
2:53 PM 46.0 °F 39.6 °F 36.0 °F 68% 29.61 in 8.0 mi SW 15.0 mph 31.1 mph 0.00 in Rain Light Rain
2:58 PM 44.6 °F 37.4 °F 39.2 °F 81% 29.69 in 2.5 mi SW 16.1 mph 29.9 mph 0.01 in Rain Rain
3:13 PM 44.6 °F 39.2 °F 39.2 °F 81% 29.69 in 4.0 mi WSW 10.4 mph 17.3 mph 0.05 in Rain Rain
3:25 PM 44.6 °F 40.7 °F 39.2 °F 81% 29.69 in 6.0 mi SSW 6.9 mph - 0.06 in Rain Light Rain
3:53 PM 46.0 °F - 37.9 °F 73% 29.60 in 10.0 mi Calm Calm - 0.07 in   Mostly Cloudy
4:53 PM 46.9 °F - 37.0 °F 68% 29.59 in 10.0 mi East 4.6 mph - N/A   Scattered Clouds
5:53 PM 45.0 °F 40.6 °F 39.0 °F 80% 29.58 in 10.0 mi NE 8.1 mph - N/A   Mostly Cloudy
6:53 PM 42.1 °F 37.1 °F 36.0 °F 79% 29.63 in 5.0 mi West 8.1 mph - 0.02 in Rain Rain
7:09 PM 41.0 °F 37.1 °F 37.4 °F 87% 29.69 in 2.5 mi SW 5.8 mph - 0.03 in Rain Rain
7:18 PM 39.2 °F 34.2 °F 37.4 °F 93% 29.69 in 3.0 mi South 6.9 mph - 0.05 in Rain Rain
7:53 PM 41.0 °F 36.4 °F 36.0 °F 82% 29.66 in 4.0 mi SSW 6.9 mph - 0.14 in Rain Rain
8:29 PM 37.4 °F 31.4 °F 33.8 °F 87% 29.73 in 2.5 mi WSW 8.1 mph 17.3 mph 0.11 in Rain Heavy Rain
8:42 PM 35.6 °F 29.9 °F 32.0 °F 87% 29.74 in 1.2 mi WSW 6.9 mph - 0.16 in Snow Light Snow
8:49 PM 33.8 °F 28.6 °F 32.0 °F 93% 29.74 in 0.8 mi WSW 5.8 mph - 0.19 in Snow Light Snow
8:53 PM 34.0 °F - 32.0 °F 92% 29.72 in 0.8 mi Calm Calm - 0.20 in Snow Light Snow
9:07 PM 33.8 °F - 32.0 °F 93% 29.75 in 1.0 mi Calm Calm - 0.04 in Snow Light Snow
9:20 PM 33.8 °F - 32.0 °F 93% 29.75 in 2.5 mi Calm Calm - 0.06 in Snow Light Snow
9:36 PM 33.8 °F 29.6 °F 32.0 °F 93% 29.76 in 1.2 mi Variable 4.6 mph 20.7 mph 0.08 in Snow Light Snow
9:45 PM 33.8 °F 26.4 °F 32.0 °F 93% 29.76 in 0.8 mi NNE 9.2 mph - 0.10 in Snow Light Snow
9:53 PM 34.0 °F 28.8 °F 32.0 °F 92% 29.73 in 0.8 mi NW 5.8 mph - 0.12 in Snow Light Snow
10:27 PM 33.8 °F 27.7 °F 32.0 °F 93% 29.77 in 1.2 mi WNW 6.9 mph - 0.06 in Snow Light Snow
10:38 PM 33.8 °F 27.0 °F 32.0 °F 93% 29.77 in 1.8 mi NW 8.1 mph - N/A Snow Light Snow
10:53 PM 34.0 °F 28.0 °F 32.0 °F 92% 29.73 in 1.8 mi NW 6.9 mph - 0.09 in Snow Light Snow
11:01 PM 33.8 °F 28.6 °F 32.0 °F 93% 29.77 in 1.8 mi NW 5.8 mph - 0.00 in Snow Light Snow
11:19 PM 33.8 °F 29.6 °F 32.0 °F 93% 29.76 in 3.0 mi NNW 4.6 mph - 0.01 in Snow Light Snow
11:44 PM 33.8 °F 30.8 °F 32.0 °F 93% 29.77 in 2.0 mi NW 3.5 mph - 0.02 in Snow Light Snow
11:53 PM 34.0 °F 31.0 °F 32.0 °F 92% 29.72 in 1.5 mi NNW 3.5 mph - 0.02 in Snow Light Snow